Zurück zum Katalog

FENGYUN 1C DEB

AktivPO
NORAD 30863·DEBRIS·🇨🇳 China

Gestartet May 10, 1999 von Taiyuan Satellite Launch Center

Loading…

Nächste Überflüge (nächste 24 Stunden)

TLE

AktuellSource: Space-Track

Epoche: Sep 14, 2026, 14:28 UTC

1 30863U 99025AWZ 26257.60330698 -.00000256  00000-0 -44452-3 0  9999
2 30863  99.1488  28.9653 0866277  28.6380 347.9888 12.41226513631629

Verfolge FENGYUN 1C DEB in Echtzeit mit AllMySat

Download on the App Store